星链-34016 (STARLINK-34016)

导读 | 豆包AI

STARLINK-34016是美国SpaceX星链星座的卫星,于2025年5月14日发射升空,属于星链卫星互联网项目的组网卫星。该卫星承担着为全球范围内用户提供低延迟、宽带互联网接入服务的任务,依托低轨部署优势,进一步扩充星链星座的全球覆盖能力,支撑星链项目在民用、商用及特种领域的服务运行。

基本信息
目录编号:
64016
目录名称:
STARLINK-34016
国际标识:
2025-101Y
轨道中心:
EARTH
卫星名称:
星链-34016
卫星全名:
星链-34016 (STARLINK-34016)
卫星状态:
在轨 (已飞行304 天)
发射日期:
2025-05-14 UTC
国别 :
美国 (US)
星等 :
--
轨道信息
数据来源 国际轨道数据
星历时间: 2026-03-14T02:41:58+0800
1天前
查看轨道信息
半长轴: 6861.135km
偏心率: 0.00014
轨道倾角: 43.002°
近地点辐角 262.160°
升交点赤经 334.605°
平近点角 97.909°
近地点: 482.037km
远地点: 483.959km
周期: 94.266分钟
每日圈数: 15.275972
详细信息
固有亮度:
5
最大亮度:
2.5
卫星平台:
Starlink V1.0
覆盖范围:
全球
运营商:
太空探索技术公司
运营商所在国:
美国
制造商(研发单位):
太空探索技术公司
制造商所在国:
美国
使用方式:
暂无
卫星简介
Starlink 计划是 SpaceX 推出的全球卫星互联网项目,通过发射低轨道卫星,为全球尤其是偏远地区提供高速、低延迟的互联网服务。自 2019 年起,Starlink 已部署数千颗卫星,旨在缩小全球数字鸿沟,推动互联网普及。该项目还为军事、航空等行业提供通信支持,带来广泛经济效益。
2D轨道图
3D轨道图
轨道高度分析图
轨道倾角分析图
轨道综合分析图
查看轨道综合分析图